IB869 LEMD-KMIA

Flight info

Callsign IB869
Flight time N/A
Altitude 39000
Route ZMR N733 DESAT DCT STG/N0487F400 DCT PASAS/M085F400 DCT 47N020W 4830N03000W 48N040W 4630N05000W DCT RELIC/N0482F400 DCT NANSO/M084F400 DCT CARAC M201 DRYED/M084F430 DCT KINER DCT JNFOX M203 SNAGY/N0471F430 BNFSH3
Aircraft A359/H-SDE2E3GHIJ3J4J5LM1ORWXY/LB1D1

Departure

Time 2026-05-06 19:49
Airport Adolfo Suárez Madrid–Barajas Airport (LEMD)

Arrival

Time N/A
Airport Miami International Airport (KMIA)
Time Latitude Longitude Altitude Speed Heading
2026-05-06 19:49 40.69382 -3.84622 12641 ft 207 kts 300°
2026-05-06 19:49 40.70161 -3.86246 13146 ft 208 kts 300°
2026-05-06 19:49 40.70938 -3.87863 13690 ft 210 kts 300°
2026-05-06 19:49 40.71710 -3.89473 14159 ft 211 kts 300°
2026-05-06 19:50 40.72493 -3.91108 14617 ft 211 kts 299°
2026-05-06 19:50 40.73279 -3.92750 15115 ft 212 kts 299°
2026-05-06 19:50 40.74066 -3.94394 15587 ft 212 kts 299°
2026-05-06 19:50 40.74854 -3.96042 16029 ft 213 kts 299°
2026-05-06 19:51 40.75645 -3.97697 16507 ft 214 kts 299°
2026-05-06 19:51 40.76442 -3.99364 16964 ft 215 kts 298°
2026-05-06 19:51 40.77242 -4.01038 17424 ft 216 kts 298°
2026-05-06 19:51 40.78043 -4.02715 17895 ft 217 kts 298°
2026-05-06 19:52 40.78850 -4.04405 18341 ft 218 kts 298°
2026-05-06 19:52 40.79660 -4.06100 18737 ft 219 kts 298°
2026-05-06 19:52 40.80474 -4.07807 19135 ft 221 kts 298°
2026-05-06 19:52 40.81296 -4.09534 19519 ft 223 kts 298°
2026-05-06 19:53 40.82127 -4.11281 19905 ft 226 kts 298°
2026-05-06 19:53 40.82963 -4.13041 20312 ft 228 kts 298°
2026-05-06 19:53 40.83809 -4.14822 20728 ft 230 kts 298°
2026-05-06 19:53 40.84663 -4.16620 21126 ft 233 kts 298°
2026-05-06 19:54 40.85527 -4.18438 21513 ft 235 kts 298°
2026-05-06 19:54 40.86399 -4.20273 21915 ft 236 kts 298°
2026-05-06 19:54 40.86978 -4.21493 22192 ft 238 kts 298°
2026-05-06 19:54 40.88148 -4.23959 22714 ft 240 kts 298°
2026-05-06 19:55 40.89039 -4.25839 23100 ft 242 kts 298°
2026-05-06 19:55 40.89938 -4.27738 23477 ft 244 kts 298°
2026-05-06 19:55 40.90844 -4.29651 23796 ft 246 kts 298°
2026-05-06 19:55 40.91759 -4.31585 24087 ft 249 kts 298°
2026-05-06 19:56 40.92378 -4.32895 24294 ft 250 kts 298°
2026-05-06 19:56 40.93290 -4.34826 24566 ft 252 kts 298°
2026-05-06 19:56 40.94223 -4.36801 24869 ft 254 kts 298°
2026-05-06 19:56 40.95163 -4.38793 25153 ft 256 kts 298°
2026-05-06 19:57 40.96108 -4.40797 25440 ft 257 kts 298°
2026-05-06 19:57 40.97058 -4.42812 25713 ft 259 kts 298°
2026-05-06 19:57 40.98017 -4.44848 25987 ft 261 kts 298°
2026-05-06 19:57 40.98980 -4.46894 26256 ft 263 kts 298°
2026-05-06 19:58 40.99951 -4.48958 26524 ft 264 kts 298°
2026-05-06 19:58 41.00926 -4.51033 26776 ft 266 kts 298°
2026-05-06 19:58 41.01908 -4.53122 27031 ft 268 kts 298°
2026-05-06 19:58 41.02881 -4.55196 27274 ft 270 kts 298°
2026-05-06 19:59 41.03875 -4.57313 27534 ft 271 kts 298°
2026-05-06 19:59 41.04872 -4.59441 27741 ft 274 kts 298°
2026-05-06 19:59 41.05884 -4.61604 27942 ft 278 kts 298°